Charles City, IA

9:43 AM CDT on May 25, 2017 (GMT -0500)
Charles City Municipal

Weather History for KCCY - January, 2013

Change the Weather History Date:

Wednesday, January 9, 2013

  Actual Average Record
Temperature  
Mean Temperature 32 °F -  
Max Temperature 37 °F 20 °F 48 °F (2002)
Min Temperature 26 °F 3 °F -24 °F (1977)
Degree Days  
Heating Degree Days 34    
Moisture  
Dew Point 25 °F    
Average Humidity 80    
Maximum Humidity 93    
Minimum Humidity 65    
Precipitation  
Precipitation 0.00 in - - ()
Sea Level Pressure  
Sea Level Pressure 30.26 in    
Wind  
Wind Speed 13 mph (WSW)    
Max Wind Speed 23 mph    
Max Gust Speed 30 mph    
Visibility 10 miles    
Events Rain    
Averages and records for this station are not official NWS values.
T = Trace of Precipitation, MM = Missing Value Source: NWS Daily Summary

Daily Weather History Graph

Daily Weather History Graph

Search for Another Location

Airport or City:

Trip Planner

Search our weather history database for the weather conditions in past years. The results will help you decide how hot, cold, wet, or windy it might be!

Date:

Astronomy

Jan. 09, 2013 Rise Set
Actual Time 7:41 AM CST 4:54 PM CST
Civil Twilight 7:09 AM CST 5:26 PM CST
Nautical Twilight 6:33 AM CST 6:01 PM CST
Astronomical Twilight 5:59 AM CST 6:36 PM CST
Moon 5:21 AM CST (1/9) 2:56 PM CST (1/9)
Length of Visible Light 10h 16m
Length of Day
9h 13m
Waning Crescent, 6% of the Moon is Illuminated
Jan 9
Waning Crescent
Jan 11
New
Jan 18
First Quarter
Jan 26
Full
Feb 3
Last Quarter

Hourly Weather History & Observations

Time (CST) Temp. Windchill Dew Point Humidity Pressure Visibility Wind Dir Wind Speed Gust Speed Precip Events Conditions
12:15 AM 30.2 °F 18.5 °F 26.6 °F 86% 29.99 in 10.0 mi West 17.3 mph - N/A   Scattered Clouds
12:35 AM 30.2 °F 19.8 °F 24.8 °F 80% 29.99 in 10.0 mi West 13.8 mph - N/A   Mostly Cloudy
12:55 AM 30.2 °F 20.8 °F 24.8 °F 80% 30.00 in 10.0 mi West 11.5 mph - N/A   Mostly Cloudy
1:15 AM 28.4 °F 17.5 °F 24.8 °F 86% 30.01 in 10.0 mi West 13.8 mph - N/A   Partly Cloudy
1:35 AM 28.4 °F 17.5 °F 24.8 °F 86% 30.02 in 10.0 mi West 13.8 mph - N/A   Clear
1:55 AM 28.4 °F 17.5 °F 24.8 °F 86% 30.03 in 10.0 mi West 13.8 mph - N/A   Clear
2:15 AM 28.4 °F 18.5 °F 24.8 °F 86% 30.04 in 10.0 mi West 11.5 mph - N/A   Partly Cloudy
2:35 AM 28.4 °F 17.5 °F 24.8 °F 86% 30.06 in 10.0 mi West 13.8 mph - N/A   Partly Cloudy
2:55 AM 30.2 °F 20.8 °F 24.8 °F 80% 30.07 in 10.0 mi West 11.5 mph - N/A   Mostly Cloudy
3:15 AM 30.2 °F 20.8 °F 24.8 °F 80% 30.07 in 10.0 mi West 11.5 mph - N/A   Overcast
3:35 AM 30.2 °F 19.8 °F 24.8 °F 80% 30.09 in 10.0 mi West 13.8 mph - N/A   Overcast
3:55 AM 30.2 °F 18.9 °F 26.6 °F 86% 30.10 in 10.0 mi West 16.1 mph - N/A   Overcast
4:15 AM 30.2 °F 20.2 °F 24.8 °F 80% 30.08 in 10.0 mi West 12.7 mph 18.4 mph N/A   Scattered Clouds
4:35 AM 30.2 °F 21.3 °F 24.8 °F 80% 30.09 in 10.0 mi WSW 10.4 mph - N/A   Clear
4:55 AM 28.4 °F 18.0 °F 24.8 °F 86% 30.10 in 10.0 mi WSW 12.7 mph - N/A   Clear
5:15 AM 28.4 °F 18.5 °F 24.8 °F 86% 30.12 in 10.0 mi WSW 11.5 mph - N/A   Clear
5:35 AM 28.4 °F 18.5 °F 24.8 °F 86% 30.12 in 10.0 mi WSW 11.5 mph - N/A   Clear
5:55 AM 28.4 °F 18.5 °F 24.8 °F 86% 30.13 in 10.0 mi WSW 11.5 mph 17.3 mph N/A   Clear
6:15 AM 26.6 °F 16.8 °F 23.0 °F 86% 30.14 in 10.0 mi WSW 10.4 mph - N/A   Clear
6:35 AM 26.6 °F 16.8 °F 23.0 °F 86% 30.15 in 10.0 mi WSW 10.4 mph - N/A   Clear
6:55 AM 26.6 °F 15.2 °F 23.0 °F 86% 30.15 in 10.0 mi West 13.8 mph - N/A   Clear
7:15 AM 28.4 °F 17.5 °F 23.0 °F 80% 30.16 in 10.0 mi West 13.8 mph - N/A   Clear
7:35 AM 26.6 °F 15.2 °F 23.0 °F 86% 30.18 in 10.0 mi West 13.8 mph - N/A   Clear
7:55 AM 26.6 °F 16.2 °F 23.0 °F 86% 30.18 in 10.0 mi West 11.5 mph - N/A   Clear
8:15 AM 28.4 °F 18.5 °F 23.0 °F 80% 30.18 in 10.0 mi West 11.5 mph - N/A   Clear
8:35 AM 28.4 °F 18.0 °F 23.0 °F 80% 30.20 in 10.0 mi West 12.7 mph - N/A   Clear
8:55 AM 30.2 °F 20.2 °F 23.0 °F 75% 30.22 in 10.0 mi WSW 12.7 mph - N/A   Clear
9:15 AM 30.2 °F 19.3 °F 24.8 °F 80% 30.23 in 10.0 mi SW 15.0 mph - N/A   Clear
9:35 AM 30.2 °F 20.2 °F 24.8 °F 80% 30.25 in 10.0 mi WSW 12.7 mph - N/A   Clear
9:55 AM 32.0 °F 21.6 °F 24.8 °F 75% 30.25 in 10.0 mi West 15.0 mph - N/A   Clear
10:15 AM 32.0 °F 21.6 °F 24.8 °F 75% 30.26 in 10.0 mi West 15.0 mph 20.7 mph N/A   Clear
10:35 AM 33.8 °F 23.2 °F 24.8 °F 70% 30.29 in 10.0 mi WSW 17.3 mph - N/A   Clear
10:55 AM 33.8 °F 23.9 °F 24.8 °F 70% 30.28 in 10.0 mi West 15.0 mph 21.9 mph N/A   Clear
11:15 AM 33.8 °F 23.5 °F 24.8 °F 70% 30.31 in 10.0 mi West 16.1 mph 24.2 mph N/A   Clear
11:35 AM 33.8 °F 22.8 °F 24.8 °F 70% 30.34 in 10.0 mi WSW 18.4 mph 25.3 mph N/A   Clear
11:55 AM 35.6 °F 25.5 °F 26.6 °F 70% 30.33 in 10.0 mi WSW 17.3 mph 24.2 mph N/A   Clear
12:15 PM 35.6 °F 24.0 °F 24.8 °F 65% 30.34 in 10.0 mi WSW 23.0 mph 28.8 mph N/A   Clear
12:35 PM 35.6 °F 24.8 °F 26.6 °F 70% 30.35 in 10.0 mi West 19.6 mph 27.6 mph N/A   Clear
12:55 PM 35.6 °F 24.2 °F 26.6 °F 70% 30.35 in 10.0 mi WSW 21.9 mph 29.9 mph N/A   Clear
1:15 PM 35.6 °F 24.8 °F 26.6 °F 70% 30.36 in 10.0 mi WSW 19.6 mph - N/A   Clear
1:35 PM 37.4 °F 27.8 °F 28.4 °F 70% 30.37 in 10.0 mi West 17.3 mph 27.6 mph N/A   Clear
1:55 PM 37.4 °F 27.8 °F 28.4 °F 70% 30.38 in 10.0 mi WSW 17.3 mph 26.5 mph N/A   Clear
2:15 PM 37.4 °F 29.3 °F 28.4 °F 70% 30.39 in 10.0 mi West 12.7 mph 23.0 mph N/A   Clear
2:35 PM 37.4 °F 28.2 °F 28.4 °F 70% 30.38 in 10.0 mi West 16.1 mph 23.0 mph N/A   Clear
2:55 PM 37.4 °F 28.5 °F 28.4 °F 70% 30.38 in 10.0 mi West 15.0 mph - N/A Rain Light Rain
3:15 PM 37.4 °F 30.8 °F 28.4 °F 70% 30.38 in 10.0 mi WNW 9.2 mph 16.1 mph N/A   Clear
3:35 PM 37.4 °F 32.8 °F 28.4 °F 70% 30.37 in 10.0 mi WNW 5.8 mph 13.8 mph N/A   Clear
3:55 PM 37.4 °F 31.4 °F 26.6 °F 65% 30.38 in 10.0 mi WNW 8.1 mph - N/A   Clear
4:15 PM 35.6 °F 30.7 °F 28.4 °F 75% 30.37 in 10.0 mi NNW 5.8 mph - N/A   Clear
4:35 PM 33.8 °F 28.6 °F 26.6 °F 75% 30.37 in 10.0 mi NNW 5.8 mph - N/A   Clear
4:55 PM 33.8 °F - 26.6 °F 75% 30.38 in 10.0 mi Calm Calm - N/A   Clear
5:15 PM 33.8 °F - 26.6 °F 75% 30.36 in 10.0 mi Calm Calm - N/A   Clear
5:35 PM 33.8 °F - 26.6 °F 75% 30.37 in 10.0 mi Calm Calm - N/A   Clear
6:15 PM 30.2 °F 23.4 °F 24.8 °F 80% 30.38 in 10.0 mi South 6.9 mph - N/A   Clear
6:35 PM 30.2 °F 25.4 °F 24.8 °F 80% 30.38 in 10.0 mi South 4.6 mph - N/A   Clear
6:55 PM 30.2 °F 24.3 °F 24.8 °F 80% 30.39 in 10.0 mi South 5.8 mph - N/A   Clear
7:15 PM 30.2 °F 26.7 °F 24.8 °F 80% 30.38 in 10.0 mi SE 3.5 mph - N/A   Clear
7:35 PM 28.4 °F 23.3 °F 24.8 °F 86% 30.37 in 10.0 mi East 4.6 mph - N/A   Clear
7:55 PM 28.4 °F 23.3 °F 24.8 °F 86% 30.38 in 10.0 mi ESE 4.6 mph - N/A   Clear
8:35 PM 28.4 °F 20.4 °F 24.8 °F 86% 30.39 in 10.0 mi South 8.1 mph - N/A   Clear
8:55 PM 30.2 °F 22.6 °F 26.6 °F 86% 30.38 in 10.0 mi SSE 8.1 mph - N/A   Clear
9:15 PM 28.4 °F 20.4 °F 24.8 °F 86% 30.38 in 10.0 mi SSE 8.1 mph - N/A   Clear
9:35 PM 28.4 °F 18.5 °F 24.8 °F 86% 30.39 in 10.0 mi South 11.5 mph - N/A   Clear
9:55 PM 30.2 °F 21.3 °F 26.6 °F 86% 30.38 in 10.0 mi SSE 10.4 mph - N/A   Partly Cloudy
10:15 PM 30.2 °F 21.9 °F 26.6 °F 86% 30.38 in 10.0 mi SSE 9.2 mph - N/A   Clear
10:35 PM 30.2 °F 21.9 °F 26.6 °F 86% 30.39 in 10.0 mi SSE 9.2 mph - N/A   Clear
10:55 PM 28.4 °F 19.1 °F 26.6 °F 93% 30.40 in 10.0 mi SSE 10.4 mph - N/A   Clear
11:15 PM 28.4 °F 19.1 °F 26.6 °F 93% 30.40 in 10.0 mi South 10.4 mph - N/A   Clear
11:35 PM 28.4 °F 19.7 °F 26.6 °F 93% 30.40 in 10.0 mi South 9.2 mph - N/A   Clear
11:55 PM 28.4 °F 18.5 °F 26.6 °F 93% 30.39 in 10.0 mi South 11.5 mph - N/A   Clear